GW0712 Weather Reports


time (UTC)temp
F
wind
direction
speed
knots
gust
knots
rain 1hr
in
rain 24hr
in
rain mn
in
humidity
%
barometer
mb
20260906121850 64 65 0.0 0.0 0.00 0.00 0.00 99 1022.6
20260906121345 64 61 0.0 0.0 0.00 0.00 0.00 99 1022.3
20260906120842 64 63 0.0 0.0 0.00 0.00 0.00 99 1022.5
20260906120337 64 65 0.0 0.0 0.00 0.00 0.00 99 1022.3
20260906115833 64 62 0.0 0.0 0.00 0.00 0.00 99 1022.5
20260906115328 63 62 0.0 0.0 0.00 0.00 0.00 99 1022.1
20260906114827 63 62 0.0 0.0 0.00 0.00 0.00 99 1022.2
20260906114323 63 62 0.0 0.0 0.00 0.00 0.00 99 1022.2
20260906113818 63 61 0.0 0.0 0.00 0.00 0.00 99 1022.1
20260906113317 63 61 0.0 0.0 0.00 0.00 0.00 99 1022.0
20260906112813 64 61 0.0 0.0 0.00 0.00 0.00 99 1022.0
20260906112309 64 61 0.0 0.0 0.00 0.00 0.00 99 1022.1
20260906111809 64 63 0.0 0.0 0.00 0.00 0.00 99 1021.9
20260906111308 64 62 0.0 0.0 0.00 0.00 0.00 99 1021.7
20260906110803 64 62 0.0 0.0 0.00 0.00 0.00 99 1021.9
20260906110259 64 60 0.0 0.0 0.00 0.00 0.00 99 1021.7
20260906105758 63 60 0.0 0.0 0.00 0.00 0.00 99 1021.5
20260906105253 63 60 0.0 0.0 0.00 0.00 0.00 99 1021.7
20260906104749 63 60 0.0 0.0 0.00 0.00 0.00 99 1021.7
20260906104248 63 62 0.0 0.0 0.00 0.00 0.00 99 1021.9
20260906103746 63 62 0.0 0.0 0.00 0.00 0.00 99 1021.4
20260906103246 63 60 0.0 0.0 0.00 0.00 0.00 99 1021.5
20260906102742 63 63 0.0 0.0 0.00 0.00 0.00 99 1021.3
20260906102240 63 60 0.0 0.0 0.00 0.00 0.00 99 1021.7
20260906101736 63 63 0.0 0.0 0.00 0.00 0.00 99 1021.5
20260906101230 63 63 0.0 0.0 0.00 0.00 0.00 99 1021.6
20260906100726 63 61 0.0 0.0 0.00 0.00 0.00 99 1021.3
20260906100226 63 61 0.0 0.0 0.00 0.00 0.00 99 1021.5
20260906095721 64 60 0.0 0.0 0.00 0.00 0.00 99 1021.6
20260906095216 64 60 0.0 0.0 0.00 0.00 0.00 99 1021.6
20260906094714 64 63 0.0 0.0 0.00 0.00 0.00 99 1021.5
20260906094210 64 63 0.0 0.0 0.00 0.00 0.00 99 1021.4
20260906093707 64 62 0.0 0.0 0.00 0.00 0.00 99 1021.4
20260906093202 64 62 0.0 0.0 0.00 0.00 0.00 99 1021.2
20260906092657 64 60 0.0 0.0 0.00 0.00 0.00 99 1021.1
20260906092156 64 61 0.0 0.0 0.00 0.00 0.00 99 1021.0
20260906091653 64 63 0.0 0.0 0.00 0.00 0.00 99 1021.3
20260906091149 64 63 0.0 0.0 0.00 0.00 0.00 99 1021.4
20260906090645 64 61 0.0 0.0 0.00 0.00 0.00 99 1021.3
20260906090144 64 60 0.0 0.0 0.00 0.00 0.00 99 1021.4
20260906085643 64 60 0.0 0.0 0.00 0.00 0.00 99 1021.0
20260906085137 64 62 0.0 0.0 0.00 0.00 0.00 99 1021.3
20260906084632 64 61 0.0 0.0 0.00 0.00 0.00 99 1021.3
20260906084131 64 61 0.0 0.0 0.00 0.00 0.00 99 1021.3
20260906083626 64 61 0.0 0.0 0.00 0.00 0.00 99 1021.3
20260906083121 64 62 0.0 0.0 0.00 0.00 0.00 99 1021.2
20260906082616 64 62 0.0 0.0 0.00 0.00 0.00 99 1021.2
20260906082112 64 61 0.0 0.0 0.00 0.00 0.00 99 1021.0
20260906081608 64 61 0.0 0.0 0.00 0.00 0.00 99 1021.1
20260906081103 64 60 0.0 0.0 0.00 0.00 0.00 99 1021.3
20260906080559 64 60 0.0 0.0 0.00 0.00 0.00 99 1021.2
20260906080055 64 60 0.0 0.0 0.00 0.00 0.00 99 1021.2
20260906075549 64 60 0.0 0.0 0.00 0.00 0.00 99 1021.2
20260906075044 64 60 0.0 0.0 0.00 0.00 0.00 99 1021.2
20260906074539 64 60 0.0 0.0 0.00 0.00 0.00 99 1021.3
20260906074037 64 60 0.0 0.0 0.00 0.00 0.00 99 1021.2
20260906073532 64 60 0.0 0.0 0.00 0.00 0.00 99 1021.6
20260906073029 64 64 0.0 0.0 0.00 0.00 0.00 99 1021.2
20260906072523 64 63 0.0 0.0 0.00 0.00 0.00 99 1021.1
20260906072020 64 63 0.0 0.0 0.00 0.00 0.00 99 1021.2
20260906071515 64 63 0.0 0.0 0.00 0.00 0.00 99 1021.1
20260906071010 64 63 0.0 0.0 0.00 0.00 0.00 99 1021.2
20260906070507 64 63 0.0 0.0 0.00 0.00 0.00 99 1021.2
20260906070002 64 63 0.0 0.0 0.00 0.00 0.00 99 1021.3
20260906065502 64 63 0.0 0.0 0.00 0.00 0.00 99 1021.1
20260906064957 64 63 0.0 0.0 0.00 0.00 0.00 99 1021.1
20260906064453 64 62 0.0 0.0 0.00 0.00 0.00 99 1021.2
20260906063948 64 65 0.0 0.0 0.00 0.00 0.00 99 1021.4
20260906063444 64 63 0.0 0.0 0.00 0.00 0.00 99 1021.2
20260906062943 64 63 0.0 0.0 0.00 0.00 0.00 99 1021.4
20260906062439 64 63 0.0 0.0 0.00 0.00 0.00 99 1021.4
20260906061934 63 63 0.0 0.0 0.00 0.00 0.00 99 1021.3
20260906061429 63 63 0.0 0.0 0.00 0.00 0.00 99 1021.0
20260906060924 64 63 0.0 0.0 0.00 0.00 0.00 99 1021.2
20260906060421 64 62 0.0 0.0 0.00 0.00 0.00 99 1021.3
20260906055917 63 62 0.0 0.0 0.00 0.00 0.00 99 1021.2
20260906055413 64 62 0.0 0.0 0.00 0.00 0.00 99 1021.1
20260906054908 64 62 0.0 0.0 0.00 0.00 0.00 99 1021.2
20260906054403 64 66 0.0 0.0 0.00 0.00 0.00 99 1021.2
20260906053859 64 63 0.0 0.0 0.00 0.00 0.00 99 1021.2
20260906053354 64 62 0.0 0.0 0.00 0.00 0.00 99 1021.3
20260906052850 64 65 0.0 0.0 0.00 0.00 0.00 99 1021.1
20260906052346 63 63 0.0 0.0 0.00 0.00 0.00 99 1021.0
20260906051843 64 60 0.0 0.0 0.00 0.00 0.00 99 1021.2
20260906051342 64 63 0.0 0.0 0.00 0.00 0.00 99 1020.9
20260906050839 64 63 0.0 0.0 0.00 0.00 0.00 99 1021.1
20260906050333 64 62 0.0 0.0 0.00 0.00 0.00 99 1021.0
20260906045832 64 63 0.0 0.0 0.00 0.00 0.00 99 1021.0
20260906045326 64 63 0.0 0.0 0.00 0.00 0.00 99 1021.2
20260906044823 64 62 0.0 0.0 0.00 0.00 0.00 99 1021.0
20260906044317 64 62 0.0 0.0 0.00 0.00 0.00 99 1020.9
20260906043813 64 62 0.0 0.0 0.00 0.00 0.00 99 1020.9
20260906043309 64 61 0.0 0.0 0.00 0.00 0.00 99 1020.7
20260906042803 64 60 0.0 0.0 0.00 0.00 0.00 99 1020.9
20260906042306 64 60 0.0 0.0 0.00 0.00 0.00 99 1020.5
20260906041758 64 63 0.0 0.0 0.00 0.00 0.00 99 1020.6
20260906041253 64 63 0.0 0.0 0.00 0.00 0.00 99 1020.5
20260906040748 64 63 0.0 0.0 0.00 0.00 0.00 99 1020.5
20260906040243 65 63 0.0 0.0 0.00 0.00 0.00 99 1020.3
20260906035738 65 63 0.0 0.0 0.00 0.00 0.00 99 1020.4
20260906035234 65 63 0.0 0.0 0.00 0.00 0.00 99 1020.3
20260906034734 65 63 0.0 0.0 0.00 0.00 0.00 99 1020.7
20260906034229 65 56 0.0 0.0 0.00 0.00 0.00 99 1020.5
20260906033725 65 63 0.0 0.0 0.00 0.00 0.00 99 1020.6
20260906033224 66 59 0.0 0.0 0.00 0.00 0.00 99 1020.6
20260906032721 66 59 0.0 0.0 0.00 0.00 0.00 99 1020.4
20260906032221 66 59 0.0 0.0 0.00 0.00 0.00 99 1020.5
20260906031716 66 58 0.0 0.0 0.00 0.00 0.00 99 1020.4
20260906031212 66 47 0.0 0.0 0.00 0.00 0.00 99 1020.2
20260906030711 66 58 0.0 0.0 0.00 0.00 0.00 99 1020.3
20260906030206 66 59 0.0 0.0 0.00 0.00 0.00 99 1020.4
20260906025706 67 55 0.0 0.0 0.00 0.00 0.00 99 1020.3
20260906025200 67 50 0.0 0.0 0.00 0.00 0.00 99 1020.1
20260906024654 67 56 0.0 0.0 0.00 0.00 0.00 99 1020.3
20260906024153 67 57 0.0 0.0 0.00 0.00 0.00 99 1020.1
20260906023650 67 65 0.0 0.0 0.00 0.00 0.00 99 1020.2
20260906023149 67 61 0.0 0.0 0.00 0.00 0.00 99 1020.0
20260906022644 67 55 0.0 0.0 0.00 0.00 0.00 99 1019.9
20260906022140 67 62 0.0 0.0 0.00 0.00 0.00 99 1020.0
20260906021636 67 60 0.0 0.0 0.00 0.00 0.00 99 1019.9
20260906021135 67 60 0.0 0.0 0.00 0.00 0.00 99 1019.8
20260906020634 68 55 0.0 0.0 0.00 0.00 0.00 99 1019.8
20260906020130 68 49 0.0 0.0 0.00 0.00 0.00 99 1020.0
20260906015624 68 40 0.0 2.6 0.00 0.00 0.00 99 1020.1
20260906015122 68 47 0.0 0.0 0.00 0.00 0.00 99 1020.0
20260906014617 68 29 0.0 2.6 0.00 0.00 0.00 99 1019.8
20260906014114 68 23 0.0 2.6 0.00 0.00 0.00 99 1020.0
20260906013609 68 46 0.0 0.0 0.00 0.00 0.00 99 1020.0
20260906013104 68 55 0.0 0.0 0.00 0.00 0.00 99 1020.1
20260906012559 68 58 0.0 0.0 0.00 0.00 0.00 99 1020.0
20260906012058 68 55 0.0 0.0 0.00 0.00 0.00 99 1020.1
20260906011555 68 57 0.0 0.0 0.00 0.00 0.00 99 1020.2
20260906011049 69 50 0.0 0.0 0.00 0.00 0.00 99 1020.1
20260906010544 69 47 0.0 0.0 0.00 0.00 0.00 99 1020.2
20260906010041 69 54 0.0 2.6 0.00 0.00 0.00 99 1020.2
20260906005540 69 47 0.0 2.6 0.00 0.00 0.00 99 1020.1
20260906005039 69 15 0.0 2.6 0.00 0.00 0.00 99 1020.0
20260906004538 69 37 0.0 2.6 0.00 0.00 0.00 99 1020.1
20260906004033 69 35 0.0 2.6 0.00 0.00 0.00 99 1020.2
20260906003528 69 21 0.0 0.0 0.00 0.00 0.00 99 1019.8
20260906003025 70 55 0.0 0.0 0.00 0.00 0.00 99 1020.1
20260906002519 70 54 0.0 0.0 0.00 0.00 0.00 99 1020.1
20260906002014 70 54 0.0 0.0 0.00 0.00 0.00 98 1020.1
20260906001510 70 57 0.0 0.0 0.00 0.00 0.00 98 1019.8
20260906001004 71 55 0.0 0.0 0.00 0.00 0.00 98 1019.8
20260906000500 71 30 0.0 0.0 0.00 0.00 0.00 98 1019.7
20260906000000 71 45 0.0 5.2 0.00 0.00 0.00 97 1019.6
20260905235454 71 6 0.0 5.2 0.00 0.00 0.00 97 1019.4
20260905234949 71 31 0.9 5.2 0.00 0.00 0.00 97 1019.7
20260905234444 71 342 6.1 7.0 0.00 0.00 0.00 97 1019.6
20260905233938 71 358 4.3 5.2 0.00 0.00 0.00 97 1019.7
20260905233434 71 29 0.0 2.6 0.00 0.00 0.00 97 1019.8
20260905232933 72 3 2.6 5.2 0.00 0.00 0.00 97 1019.8
20260905232429 72 27 0.0 2.6 0.00 0.00 0.00 96 1019.9
20260905231924 72 358 1.7 5.2 0.00 0.00 0.00 95 1019.9
20260905231420 72 345 3.5 5.2 0.00 0.00 0.00 96 1019.8
20260905230917 72 35 0.0 5.2 0.00 0.00 0.00 96 1020.2
20260905230414 73 19 0.0 2.6 0.00 0.00 0.00 96 1019.8
20260905225907 73 349 2.6 7.0 0.00 0.00 0.00 95 1019.8
20260905225403 73 20 3.5 5.2 0.00 0.00 0.00 96 1019.6
20260905224858 73 11 6.1 7.0 0.00 0.00 0.00 95 1019.5
20260905224353 73 354 2.6 5.2 0.00 0.00 0.00 95 1019.6
20260905223848 74 4 5.2 7.0 0.00 0.00 0.00 94 1019.4
20260905223346 74 60 2.6 5.2 0.00 0.00 0.00 94 1019.6
20260905222840 75 8 2.6 7.0 0.00 0.00 0.00 93 1019.3
20260905222338 75 19 0.9 5.2 0.00 0.00 0.00 93 1019.3
20260905221835 75 38 2.6 5.2 0.00 0.00 0.00 92 1019.5
20260905221332 75 31 2.6 5.2 0.00 0.00 0.00 91 1019.2
20260905220827 75 357 1.7 2.6 0.00 0.00 0.00 91 1019.3
20260905220323 75 48 0.0 2.6 0.00 0.00 0.00 90 1019.2
20260905215822 75 16 0.9 5.2 0.00 0.00 0.00 90 1019.1
20260905215318 76 15 0.9 5.2 0.00 0.00 0.00 90 1018.9
20260905214815 76 43 0.9 5.2 0.00 0.00 0.00 90 1018.9
20260905214310 77 338 3.5 5.2 0.00 0.00 0.00 90 1019.0
20260905213804 77 346 3.5 7.0 0.00 0.00 0.00 89 1019.0
20260905213300 76 55 0.0 2.6 0.00 0.00 0.00 90 1018.8
20260905212755 76 31 1.7 5.2 0.00 0.00 0.00 91 1018.5
20260905212254 77 352 4.3 7.0 0.00 0.00 0.00 89 1018.7
20260905211749 77 34 0.0 5.2 0.00 0.00 0.00 90 1018.7
20260905211244 77 54 2.6 5.2 0.00 0.00 0.00 90 1018.7
20260905210742 77 20 0.9 2.6 0.00 0.00 0.00 91 1018.4
20260905210240 77 54 0.0 2.6 0.00 0.00 0.00 91 1018.9
20260905205739 78 350 3.5 7.0 0.00 0.00 0.00 90 1018.5
20260905205235 77 47 0.0 2.6 0.00 0.00 0.00 92 1018.6
20260905204734 78 35 0.0 2.6 0.00 0.00 0.00 92 1018.8
20260905204230 78 15 0.9 2.6 0.00 0.00 0.00 92 1018.6
20260905203729 78 21 0.0 2.6 0.00 0.00 0.00 90 1018.7
20260905203225 78 23 1.7 9.6 0.00 0.00 0.00 90 1018.6
20260905202720 78 50 0.0 5.2 0.00 0.00 0.00 93 1018.6
20260905202215 78 29 0.9 5.2 0.00 0.00 0.00 93 1018.5
20260905201710 78 356 4.3 7.0 0.00 0.00 0.00 91 1018.7
20260905201205 80 56 0.0 2.6 0.00 0.00 0.00 87 1018.5
20260905200700 80 44 0.0 0.0 0.00 0.00 0.00 86 1018.7
20260905200156 80 59 0.0 0.0 0.00 0.00 0.00 86 1018.7
20260905195654 81 47 2.6 5.2 0.00 0.00 0.00 85 1018.7
20260905195149 81 44 1.7 2.6 0.00 0.00 0.00 86 1019.0
20260905194644 80 94 0.0 2.6 0.00 0.00 0.00 85 1018.7
20260905194144 80 81 0.0 0.0 0.00 0.00 0.00 85 1018.7
20260905193638 80 61 0.0 2.6 0.00 0.00 0.00 85 1018.5
20260905193133 80 38 0.0 0.0 0.00 0.00 0.00 86 1018.7
20260905192628 80 58 0.0 0.0 0.00 0.00 0.00 84 1018.9
20260905192125 81 31 3.5 5.2 0.00 0.00 0.00 83 1018.6
20260905191624 81 79 0.0 0.0 0.00 0.00 0.00 83 1018.7
20260905191122 81 53 0.0 5.2 0.00 0.00 0.00 82 1019.1
20260905190621 80 65 0.0 2.6 0.00 0.00 0.00 86 1018.6
20260905190115 80 38 0.0 2.6 0.00 0.00 0.00 87 1018.7
20260905185614 80 65 0.0 0.0 0.00 0.00 0.00 88 1019.1
20260905185108 80 57 0.0 2.6 0.00 0.00 0.00 85 1019.0
20260905184603 81 3 2.6 2.6 0.00 0.00 0.00 86 1018.9
20260905184102 81 69 0.0 0.0 0.00 0.00 0.00 86 1018.8
20260905183601 80 103 0.0 0.0 0.00 0.00 0.00 87 1019.1
20260905183057 79 65 0.0 0.0 0.00 0.00 0.00 89 1018.9
20260905182556 79 63 0.0 0.0 0.00 0.00 0.00 90 1018.9
20260905182050 78 64 0.0 0.0 0.00 0.00 0.00 91 1019.2
20260905181545 78 69 0.0 0.0 0.00 0.00 0.00 92 1018.9
20260905181045 78 65 0.0 0.0 0.00 0.00 0.00 91 1019.2
20260905180545 78 63 0.0 0.0 0.00 0.00 0.00 92 1019.0
20260905180041 79 57 0.0 0.0 0.00 0.00 0.00 90 1019.1
20260905175539 78 57 0.0 0.0 0.00 0.00 0.00 91 1019.2
20260905175035 78 73 0.0 2.6 0.00 0.00 0.00 94 1019.0
20260905174531 77 64 0.0 0.0 0.00 0.00 0.00 95 1019.1
20260905174026 77 58 0.0 0.0 0.00 0.00 0.00 96 1019.3
20260905173523 76 62 0.0 0.0 0.00 0.00 0.00 95 1019.5
20260905173018 76 58 0.0 0.0 0.00 0.00 0.00 96 1019.3
20260905172516 76 38 0.0 0.0 0.00 0.00 0.00 96 1019.2
20260905172012 75 56 0.0 0.0 0.00 0.00 0.00 96 1019.3
20260905171508 76 58 0.0 0.0 0.00 0.00 0.00 96 1019.5
20260905171003 76 54 0.0 0.0 0.00 0.00 0.00 95 1019.2
20260905170500 76 58 0.0 0.0 0.00 0.00 0.00 95 1019.2
20260905165954 75 49 0.0 0.0 0.00 0.00 0.00 96 1019.6
20260905165449 75 61 0.0 0.0 0.00 0.00 0.00 96 1019.5
20260905164944 75 63 0.0 0.0 0.00 0.00 0.00 97 1019.7
20260905164438 75 58 0.0 0.0 0.00 0.00 0.00 97 1019.4
20260905163933 75 61 0.0 0.0 0.00 0.00 0.00 97 1019.7
20260905163430 75 56 0.0 0.0 0.00 0.00 0.00 97 1019.4
20260905162925 75 55 0.0 0.0 0.00 0.00 0.00 97 1019.4
20260905162420 75 57 0.0 0.0 0.00 0.00 0.00 97 1019.4
20260905161915 75 60 0.0 0.0 0.00 0.00 0.00 96 1019.4
20260905161414 75 52 0.0 0.0 0.00 0.00 0.00 97 1019.4
20260905160912 75 68 0.0 0.0 0.00 0.00 0.00 96 1019.2
20260905160406 75 50 0.0 0.0 0.00 0.00 0.00 97 1019.6
20260905155900 75 67 0.0 0.0 0.00 0.00 0.00 98 1019.4
20260905155355 75 66 0.0 0.0 0.00 0.00 0.00 98 1019.5
20260905154854 74 40 0.0 0.0 0.00 0.00 0.00 97 1019.4
20260905154349 74 58 0.0 0.0 0.00 0.00 0.00 98 1019.6
20260905153845 74 68 0.0 5.2 0.00 0.00 0.00 98 1019.4
20260905153342 74 59 0.0 2.6 0.00 0.00 0.00 99 1019.3
20260905152841 73 57 0.0 2.6 0.00 0.00 0.00 99 1019.3
20260905152340 73 53 0.0 0.0 0.00 0.00 0.00 99 1019.3
20260905151835 73 59 0.0 0.0 0.00 0.00 0.00 99 1019.2
20260905151331 73 56 0.0 0.0 0.00 0.00 0.00 99 1019.2
20260905150831 73 57 0.0 0.0 0.00 0.00 0.00 99 1019.2
20260905150326 73 55 0.0 0.0 0.00 0.00 0.00 99 1018.9
20260905145823 73 57 0.0 2.6 0.00 0.00 0.00 99 1018.8
20260905145322 73 47 0.0 2.6 0.00 0.00 0.00 99 1019.0
20260905144821 73 57 0.0 0.0 0.00 0.00 0.00 99 1018.8
20260905144317 73 39 0.9 2.6 0.00 0.00 0.00 99 1018.8
20260905143816 73 34 0.0 2.6 0.00 0.00 0.00 99 1018.9
20260905143310 73 52 0.0 0.0 0.00 0.00 0.00 99 1018.6
20260905142809 73 37 2.6 2.6 0.00 0.00 0.00 99 1018.6
20260905142306 73 35 0.0 5.2 0.00 0.00 0.00 99 1018.7
20260905141800 73 345 2.6 2.6 0.00 0.00 0.00 99 1018.4
20260905141255 72 359 4.3 5.2 0.00 0.00 0.00 99 1018.3
20260905140751 73 31 2.6 2.6 0.00 0.00 0.00 99 1018.4
20260905140250 72 45 0.0 0.0 0.00 0.00 0.00 99 1018.5
20260905135749 72 53 0.0 5.2 0.00 0.00 0.00 99 1018.3
20260905135245 72 13 0.9 2.6 0.00 0.00 0.00 99 1018.3
20260905134744 72 52 0.0 2.6 0.00 0.00 0.00 99 1018.2
20260905134239 72 51 0.0 0.0 0.00 0.00 0.00 99 1018.3
20260905133734 72 36 3.5 5.2 0.00 0.00 0.00 99 1018.7
20260905133229 72 46 0.0 0.0 0.00 0.00 0.00 99 1018.3
20260905132728 71 48 0.0 2.6 0.00 0.00 0.00 99 1018.4
20260905132224 71 43 0.0 2.6 0.00 0.00 0.00 99 1018.4
20260905131718 71 49 0.0 0.0 0.00 0.00 0.00 99 1018.5
20260905131214 71 58 0.0 0.0 0.00 0.00 0.00 99 1018.4
20260905130708 71 60 0.0 0.0 0.00 0.00 0.00 99 1019.0
20260905130208 71 64 0.0 0.0 0.00 0.00 0.00 99 1018.8
20260905125702 71 64 0.0 0.0 0.00 0.00 0.00 99 1018.6
20260905125158 70 62 0.0 0.0 0.00 0.00 0.00 99 1018.4
20260905124654 70 60 0.0 0.0 0.00 0.00 0.00 99 1018.4
20260905124150 70 59 0.0 0.0 0.00 0.00 0.00 99 1018.4
20260905123644 70 59 0.0 0.0 0.00 0.00 0.00 99 1018.1
20260905123142 70 45 0.9 2.6 0.00 0.00 0.00 99 1017.9
20260905122641 70 60 0.0 0.0 0.00 0.00 0.00 99 1018.0